Wind_Speed
64 60 60 58 57 55 54 52 50 49 47 45 45 45 47 45 42 42 44 46 41 38 39 39 40 43 44 43 42 41 41 40 38 37 38 49 54 51 52 57 58 59 66
65 64 62 61 60 60 56 50 50 49 48 49 48 45 44 46 46 46 53 53 50 43 40 40 42 43 46 44 43 47 44 42 42 37 43 54 52 59 57 66 57 53 60
63 66 65 65 67 61 59 56 55 53 56 57 59 59 57 56 54 54 54 57 55 52 46 45 44 45 48 48 49 52 51 46 44 40 47 53 62 63 64 68 60 58 57
65 59 63 66 64 64 62 62 62 60 63 63 63 63 63 62 63 59 60 57 60 56 50 50 47 50 48 50 51 54 51 50 47 45 51 58 63 67 69 70 65 61 56
61 58 59 56 57 61 62 63 63 65 67 65 65 67 66 64 63 60 62 64 64 58 56 51 49 51 50 51 55 56 53 51 50 48 57 63 65 67 72 72 67 64 64
63 63 63 57 56 54 57 61 61 61 61 65 67 65 65 67 63 66 71 65 62 58 56 52 53 53 54 54 57 56 56 53 54 55 62 70 67 67 73 83 77 66 56
63 62 59 56 52 48 52 56 54 62 63 63 64 63 60 66 65 71 72 71 64 63 59 60 57 57 58 58 60 61 58 58 57 62 67 72 77 71 82 80 76 64 58
58 56 57 56 54 49 51 56 58 60 62 67 70 68 62 71 73 75 74 68 67 68 67 66 64 62 60 62 65 66 64 61 60 66 73 77 81 82 84 84 69 64 62
66 59 63 58 58 59 56 57 61 64 64 64 68 67 64 75 71 74 72 69 69 68 70 67 67 65 63 64 66 67 70 62 69 77 77 82 90 88 87 78 71 65 65
62 67 63 60 64 62 60 63 61 70 70 69 67 68 75 75 69 75 74 70 68 71 67 64 65 64 64 67 68 72 71 74 77 81 83 92 90 89 85 75 72 71 63
64 64 67 67 67 65 65 64 67 71 64 70 72 75 78 75 73 73 74 70 69 68 69 67 65 68 66 67 69 75 74 76 77 81 88 90 91 87 81 76 73 77 68
75 74 73 73 76 76 77 74 68 69 70 75 76 76 75 76 78 76 75 72 72 73 71 72 75 70 67 71 76 77 77 78 83 90 96 92 89 82 75 72 76 75 73
82 82 83 80 75 74 77 75 76 77 76 77 81 80 82 80 80 78 78 77 77 77 78 78 74 73 76 80 78 76 80 83 93 98 89 87 85 87 81 77 74 74 78
68 74 72 76 80 79 72 74 73 72 72 76 80 76 80 81 80 80 83 82 85 81 79 78 79 79 78 80 79 82 88 92 98 97 96 92 85 83 83 82 83 88 88
81 80 79 79 79 73 74 74 75 77 80 82 78 77 81 84 86 89 91 89 88 84 85 85 84 86 86 88 89 87 97 96 104 101 94 97 89 91 92 87 96 89 90
85 83 80 82 84 88 84 88 92 90 88 91 92 86 93 90 89 93 93 91 87 88 90 88 91 96 94 90 90 101 104 104 100 103 97 94 90 91 93 91 89 97 97
96 96 91 91 94 94 96 97 100 101 99 98 100 104 104 104 101 96 95 93 95 95 94 93 91 92 92 94 103 103 103 98 106 103 94 94 102 98 96 97 96 99 109
99 98 99 97 100 99 98 99 98 103 101 97 99 104 105 102 103 101 102 107 108 104 100 99 98 102 103 105 105 107 107 95 101 102 102 101 106 100 99 105 102 104 115
99 97 100 100 97 98 100 99 99 98 100 102 106 108 107 107 104 101 105 109 106 107 108 110 106 108 109 109 111 111 109 104 103 104 105 102 104 107 107 116 111 122 124
96 101 101 102 101 104 105 104 102 98 101 96 103 110 111 111 107 111 110 111 113 116 114 111 112 106 110 110 113 106 101 106 109 111 108 114 115 113 118 119 124 125 129
101 106 108 108 110 107 111 110 110 115 115 113 111 113 117 115 118 112 115 113 112 114 111 111 113 106 108 110 108 103 103 115 115 121 115 123 123 121 127 130 126 137 133
88 95 97 105 110 111 117 114 115 118 118 118 124 123 117 116 113 111 113 111 116 113 111 112 109 109 109 114 125 125 121 122 120 126 129 125 126 130 135 136 133 139 131
109 108 110 115 111 113 113 120 118 118 122 123 118 116 121 119 119 120 120 121 116 118 123 127 126 125 126 123 129 131 129 129 126 124 132 136 137 141 136 138 135 132 130
105 105 110 109 115 120 124 121 122 128 128 129 129 129 128 131 129 130 131 134 125 129 129 129 125 127 128 124 127 131 133 134 139 135 140 141 139 136 137 130 117 112 89
106 107 119 125 128 133 139 141 140 143 150 154 152 150 149 150 146 147 140 138 131 135 134 137 137 136 132 140 138 137 144 145 142 138 135 139 130 119 117 111 94 79 64
120 125 130 131 139 145 153 153 157 161 155 159 152 160 157 159 160 135 139 143 154 152 152 145 144 149 153 146 135 132 141 135 128 128 117 106 108 103 95 83 70 59 50
Wind_Direction
243 243 248 253 257 260 263 269 266 271 274 277 280 281 283 285 290 290 296 295 290 292 298 300 301 298 300 295 295 298 301 305 312 309 315 316 318 324 320 318 318 319 317
239 243 246 251 255 258 262 267 267 270 272 272 277 281 280 282 288 288 291 293 292 294 294 299 301 294 298 290 293 300 304 299 309 306 310 315 319 331 329 330 322 322 322
241 241 247 252 255 257 262 265 267 268 270 274 278 279 276 279 283 286 288 290 288 286 292 292 296 291 290 292 290 294 298 298 305 303 312 306 315 321 328 334 323 321 319
240 243 247 251 255 257 260 263 268 271 273 274 276 277 277 277 280 284 288 290 289 284 287 290 292 290 290 292 291 293 294 300 298 300 303 308 311 319 327 329 333 321 322
236 241 249 252 256 256 258 262 266 271 274 276 275 273 277 279 287 284 288 285 289 286 290 285 287 292 286 288 288 290 294 294 295 294 303 307 312 318 321 325 332 322 307
237 240 249 253 253 254 258 260 263 271 272 273 275 276 281 281 281 281 276 280 284 287 288 282 285 289 286 285 288 288 292 290 291 291 297 306 314 315 320 322 324 323 312
242 241 247 244 245 248 258 254 257 261 263 267 268 275 276 277 273 273 274 278 281 283 285 285 283 286 283 285 288 289 290 297 292 292 300 308 315 316 317 319 325 329 313
241 244 237 244 247 249 254 259 263 263 266 266 263 264 267 267 269 270 276 278 278 279 282 287 285 288 286 285 287 287 289 294 291 297 303 307 312 311 315 320 321 320 314
236 241 240 249 253 253 255 263 267 270 268 268 263 262 265 266 270 271 274 276 278 279 283 285 283 284 284 287 289 286 289 292 301 300 303 306 309 307 314 320 321 321 317
245 245 248 248 252 252 258 264 262 268 266 265 266 266 266 266 272 274 279 279 283 283 283 284 287 286 283 284 288 289 290 296 302 304 305 307 307 309 314 317 321 317 312
242 248 247 249 250 252 254 263 263 263 269 268 266 267 275 278 278 281 285 282 284 282 281 284 287 287 286 285 290 289 291 296 301 304 306 305 307 306 313 314 315 318 317
239 242 244 248 249 253 255 258 259 264 267 267 270 270 271 277 278 274 277 284 284 280 278 282 284 283 286 288 290 290 292 292 299 303 307 308 306 304 307 310 310 309 312
241 241 247 253 255 257 258 263 264 266 274 272 270 271 271 272 277 277 283 281 281 281 286 285 286 285 287 289 288 291 293 292 302 304 303 306 305 311 307 308 314 308 307
250 251 251 254 257 260 265 264 262 265 269 265 266 275 271 275 278 281 282 282 288 281 284 283 283 286 286 287 286 293 293 296 298 299 303 302 304 307 313 311 312 305 303
249 250 252 256 258 259 259 260 263 264 265 267 271 276 276 279 281 281 282 282 284 282 285 284 284 286 289 289 289 289 294 300 304 305 306 308 306 303 309 307 298 306 307
246 249 254 258 259 258 260 264 268 267 268 270 270 275 278 282 285 279 280 282 281 282 283 286 288 288 290 287 287 295 299 301 303 302 300 299 302 298 301 304 297 294 306
246 250 254 257 262 263 263 265 269 269 273 269 271 272 276 280 282 279 279 278 278 280 280 282 283 287 288 286 293 294 297 296 300 296 299 297 300 299 300 301 297 297 300
249 255 259 263 264 266 266 269 270 270 272 272 272 273 274 278 279 277 275 279 279 276 277 281 282 285 289 286 288 292 298 292 297 294 294 298 300 297 294 299 300 299 304
249 255 259 263 265 267 268 270 271 272 272 274 275 275 276 277 278 275 275 277 276 275 276 279 281 286 287 288 292 295 298 289 292 294 293 295 300 296 296 298 297 301 305
256 259 262 264 265 267 268 269 270 271 273 274 275 276 278 279 278 278 277 277 278 279 279 282 285 286 290 290 289 289 286 287 289 290 293 294 293 294 297 301 300 300 303
256 258 260 263 265 266 265 267 269 272 274 274 274 274 278 278 278 277 279 279 281 283 288 285 287 286 286 283 284 287 286 288 287 289 287 291 291 296 297 300 298 303 304
257 260 261 265 268 269 267 270 271 272 275 276 275 275 274 273 273 274 275 277 276 278 278 276 282 276 277 282 280 281 279 286 285 286 291 290 292 295 294 299 297 303 301
259 262 266 266 265 267 268 270 272 273 274 273 270 269 273 272 272 275 273 276 274 270 273 275 275 277 284 283 279 281 283 283 285 287 288 290 289 294 292 299 300 300 301
266 266 267 267 270 271 271 271 271 271 271 271 271 272 273 274 273 274 273 274 274 274 272 272 273 274 278 280 279 280 282 283 285 287 291 292 294 293 297 299 298 300 299
268 269 269 269 272 274 272 270 271 270 271 272 272 271 272 272 273 272 275 273 275 275 275 273 271 277 278 278 282 282 280 285 288 287 286 292 295 295 294 296 298 296 292
268 268 270 274 273 271 272 272 274 274 272 273 274 276 275 275 281 278 277 272 273 277 274 274 275 276 278 279 280 281 282 283 285 286 289 290 294 291 293 294 291 287 286
Height
10821 10823 10825 10829 10833 10836 10838 10842 10845 10847 10848 10848 10849 10849 10848 10847 10846 10846 10844 10843 10844 10843 10842 10840 10837 10835 10833 10830 10828 10826 10823 10820 10818 10813 10809 10805 10799 10792 10786 10779 10774 10767 10760
10812 10813 10816 10820 10823 10825 10830 10834 10836 10837 10838 10839 10840 10840 10839 10838 10837 10838 10835 10835 10835 10835 10834 10833 10831 10828 10826 10824 10821 10817 10816 10813 10809 10806 10801 10797 10792 10785 10778 10772 10764 10757 10749
10802 10805 10808 10810 10813 10818 10821 10824 10825 10827 10827 10828 10829 10830 10831 10829 10829 10828 10826 10826 10826 10827 10826 10825 10823 10820 10817 10815 10813 10810 10807 10804 10801 10797 10794 10789 10783 10776 10769 10762 10755 10748 10741
10791 10796 10798 10800 10806 10810 10812 10814 10815 10816 10817 10818 10819 10819 10818 10820 10820 10818 10817 10814 10815 10816 10816 10815 10814 10812 10810 10807 10805 10803 10800 10796 10792 10788 10784 10781 10773 10766 10760 10753 10745 10739 10731
10779 10786 10788 10792 10797 10801 10803 10805 10806 10806 10807 10807 10807 10807 10807 10810 10810 10808 10805 10803 10802 10806 10806 10804 10803 10803 10801 10799 10795 10792 10790 10787 10783 10779 10776 10771 10764 10755 10749 10743 10735 10727 10719
10770 10775 10779 10785 10789 10791 10791 10794 10795 10796 10796 10795 10795 10796 10797 10799 10797 10795 10791 10791 10793 10793 10794 10792 10792 10792 10792 10789 10786 10783 10781 10777 10773 10769 10765 10760 10753 10746 10738 10731 10725 10715 10706
10759 10767 10771 10775 10777 10777 10779 10782 10782 10782 10782 10783 10782 10784 10786 10787 10781 10779 10780 10782 10783 10781 10780 10780 10779 10780 10779 10778 10775 10772 10769 10767 10762 10758 10753 10747 10741 10735 10728 10720 10712 10704 10694
10749 10755 10760 10762 10763 10764 10769 10770 10769 10769 10770 10770 10769 10769 10768 10768 10764 10765 10769 10770 10770 10768 10768 10767 10767 10767 10765 10764 10763 10761 10758 10754 10751 10747 10741 10735 10729 10722 10715 10706 10698 10690 10681
10739 10743 10747 10750 10752 10756 10757 10757 10756 10755 10756 10756 10755 10754 10752 10751 10752 10754 10756 10758 10757 10757 10756 10756 10756 10754 10752 10751 10750 10747 10744 10741 10738 10734 10727 10721 10715 10708 10701 10692 10685 10676 10668
10727 10733 10736 10739 10742 10743 10745 10745 10742 10740 10741 10742 10741 10739 10735 10738 10741 10742 10744 10745 10747 10744 10744 10743 10740 10740 10738 10738 10735 10733 10730 10727 10724 10720 10715 10707 10700 10693 10686 10678 10669 10662 10653
10716 10721 10723 10726 10727 10728 10729 10729 10728 10726 10727 10727 10726 10723 10724 10728 10731 10732 10732 10733 10733 10733 10729 10726 10724 10724 10723 10722 10721 10719 10716 10711 10708 10703 10696 10692 10686 10677 10670 10661 10654 10646 10637
10703 10705 10706 10709 10711 10714 10716 10716 10716 10714 10714 10712 10712 10711 10715 10717 10717 10718 10716 10718 10716 10717 10716 10713 10710 10708 10708 10708 10706 10703 10699 10696 10691 10688 10684 10676 10669 10661 10653 10645 10638 10628 10618
10686 10690 10694 10696 10698 10700 10702 10705 10706 10704 10702 10701 10698 10698 10702 10701 10702 10702 10702 10700 10700 10701 10700 10697 10694 10693 10691 10690 10687 10686 10683 10679 10675 10669 10664 10657 10650 10642 10636 10628 10618 10608 10606
10672 10676 10679 10681 10685 10689 10692 10695 10693 10692 10691 10689 10687 10688 10689 10687 10686 10685 10683 10682 10683 10684 10681 10680 10678 10675 10674 10672 10670 10667 10664 10659 10654 10648 10644 10639 10629 10623 10614 10607 10597 10595 10588
10662 10664 10665 10668 10672 10676 10678 10679 10679 10679 10679 10677 10676 10674 10675 10673 10673 10669 10667 10664 10664 10661 10662 10660 10660 10657 10656 10652 10650 10647 10644 10638 10631 10623 10615 10607 10601 10598 10593 10588 10586 10581 10576
10649 10651 10654 10654 10657 10660 10662 10663 10663 10663 10663 10661 10661 10659 10657 10656 10655 10653 10651 10649 10647 10645 10643 10640 10638 10635 10632 10629 10625 10621 10617 10613 10609 10604 10599 10594 10590 10584 10579 10571 10567 10563 10557
10637 10637 10640 10641 10642 10643 10645 10645 10645 10645 10646 10645 10644 10643 10639 10640 10638 10635 10633 10630 10627 10626 10625 10623 10618 10615 10613 10608 10605 10602 10598 10592 10587 10583 10580 10575 10569 10563 10558 10553 10550 10546 10538
10626 10627 10628 10629 10631 10628 10626 10626 10625 10626 10625 10623 10620 10619 10621 10615 10617 10616 10610 10610 10609 10606 10605 10602 10599 10596 10592 10587 10585 10581 10577 10573 10566 10562 10556 10553 10546 10542 10538 10535 10531 10526 10518
10614 10614 10613 10613 10611 10611 10609 10608 10607 10605 10603 10601 10598 10596 10593 10593 10592 10592 10590 10585 10583 10582 10579 10578 10576 10573 10570 10566 10560 10556 10552 10547 10542 10537 10533 10528 10524 10521 10517 10514 10510 10503 10496
10602 10599 10599 10597 10594 10593 10591 10589 10585 10582 10579 10576 10572 10571 10570 10569 10565 10564 10563 10562 10557 10555 10555 10552 10550 10547 10543 10539 10536 10528 10524 10519 10515 10511 10509 10504 10502 10495 10493 10490 10488 10479 10470
10585 10584 10582 10579 10575 10571 10569 10568 10564 10561 10558 10556 10553 10549 10545 10543 10543 10541 10533 10534 10531 10529 10526 10519 10521 10520 10513 10511 10511 10506 10503 10498 10495 10487 10484 10483 10477 10475 10467 10463 10457 10453 10446
10575 10570 10564 10561 10558 10552 10546 10540 10536 10532 10529 10528 10526 10524 10519 10519 10514 10513 10509 10507 10507 10502 10497 10493 10497 10494 10490 10491 10489 10482 10480 10478 10473 10470 10461 10456 10451 10447 10443 10439 10437 10430 10423
10553 10549 10545 10541 10533 10525 10519 10514 10507 10504 10500 10496 10492 10490 10489 10485 10481 10479 10480 10478 10478 10479 10478 10469 10471 10470 10470 10463 10459 10453 10454 10451 10446 10443 10440 10437 10428 10426 10421 10419 10410 10406 10403
10537 10530 10525 10518 10509 10498 10490 10483 10475 10471 10466 10462 10460 10457 10455 10450 10450 10446 10445 10448 10446 10446 10443 10441 10435 10435 10437 10437 10434 10428 10423 10422 10420 10415 10418 10410 10403 10401 10397 10396 10387 10382 10378
10520 10510 10498 10486 10477 10466 10452 10443 10435 10431 10428 10422 10419 10418 10417 10416 10416 10414 10415 10413 10410 10411 10410 10411 10409 10409 10409 10406 10403 10400 10398 10393 10393 10393 10388 10384 10382 10377 10372 10370 10365 10362 10359
10490 10479 10465 10454 10446 10433 10418 10403 10393 10389 10384 10379 10379 10367 10365 10364 10365 10356 10362 10364 10377 10377 10373 10375 10374 10371 10373 10373 10374 10367 10367 10367 10365 10365 10363 10360 10360 10353 10352 10348 10345 10344 10340